Year,Month,Day,Hour,Minute,Value (Times are PST for temperature in C)
2023,05,16,00,00,20.50
2023,05,16,00,01,20.50
2023,05,16,00,02,20.40
2023,05,16,00,03,20.40
2023,05,16,00,04,20.40
2023,05,16,00,05,20.40
2023,05,16,00,06,20.40
2023,05,16,00,07,20.40
2023,05,16,00,08,20.40
2023,05,16,00,09,20.30
2023,05,16,00,10,20.20
2023,05,16,00,11,20.10
2023,05,16,00,12,19.90
2023,05,16,00,13,19.70
2023,05,16,00,14,19.50
2023,05,16,00,15,19.30
2023,05,16,00,16,19.20
2023,05,16,00,17,19.10
2023,05,16,00,18,19.00
2023,05,16,00,19,18.90
2023,05,16,00,20,18.80
2023,05,16,00,21,18.70
2023,05,16,00,22,18.60
2023,05,16,00,23,18.50
2023,05,16,00,24,18.40
2023,05,16,00,25,18.30
2023,05,16,00,26,18.20
2023,05,16,00,27,18.20
2023,05,16,00,28,18.10
2023,05,16,00,29,18.00
2023,05,16,00,30,18.00
2023,05,16,00,31,17.90
2023,05,16,00,32,17.80
2023,05,16,00,33,17.80
2023,05,16,00,34,17.70
2023,05,16,00,35,17.70
2023,05,16,00,36,17.60
2023,05,16,00,37,17.50
2023,05,16,00,38,17.50
2023,05,16,00,39,17.50
2023,05,16,00,40,17.40
2023,05,16,00,41,17.30
2023,05,16,00,42,17.30
2023,05,16,00,43,17.20
2023,05,16,00,44,17.10
2023,05,16,00,45,17.00
2023,05,16,00,46,16.90
2023,05,16,00,47,16.80
2023,05,16,00,48,16.80
2023,05,16,00,49,16.70
2023,05,16,00,50,16.60
2023,05,16,00,51,16.50
2023,05,16,00,52,16.50
2023,05,16,00,53,16.40
2023,05,16,00,54,16.40
2023,05,16,00,55,16.40
2023,05,16,00,56,16.40
2023,05,16,00,57,16.40
2023,05,16,00,58,16.40
2023,05,16,00,59,16.40
2023,05,16,01,00,16.40
2023,05,16,01,01,16.40
2023,05,16,01,02,16.40
2023,05,16,01,03,16.40
2023,05,16,01,04,16.40
2023,05,16,01,05,16.40
2023,05,16,01,06,16.40
2023,05,16,01,07,16.40
2023,05,16,01,08,16.40
2023,05,16,01,09,16.40
2023,05,16,01,10,16.30
2023,05,16,01,11,16.30
2023,05,16,01,12,16.30
2023,05,16,01,13,16.30
2023,05,16,01,14,16.30
2023,05,16,01,15,16.20
2023,05,16,01,16,16.20
2023,05,16,01,17,16.20
2023,05,16,01,18,16.10
2023,05,16,01,19,16.10
2023,05,16,01,20,16.10
2023,05,16,01,21,16.00
2023,05,16,01,22,16.00
2023,05,16,01,23,16.00
2023,05,16,01,24,15.90
2023,05,16,01,25,15.90
2023,05,16,01,26,15.90
2023,05,16,01,27,15.90
2023,05,16,01,28,15.80
2023,05,16,01,29,15.80
2023,05,16,01,30,15.80
2023,05,16,01,31,15.80
2023,05,16,01,32,15.70
2023,05,16,01,33,15.70
2023,05,16,01,34,15.70
2023,05,16,01,35,15.70
2023,05,16,01,36,15.70
2023,05,16,01,37,15.70
2023,05,16,01,38,15.70
2023,05,16,01,39,15.70
2023,05,16,01,40,15.80
2023,05,16,01,41,15.80
2023,05,16,01,42,15.80
2023,05,16,01,43,15.80
2023,05,16,01,44,15.80
2023,05,16,01,45,15.90
2023,05,16,01,46,15.90
2023,05,16,01,47,15.90
2023,05,16,01,48,15.90
2023,05,16,01,49,15.90
2023,05,16,01,50,16.00
2023,05,16,01,51,16.00
2023,05,16,01,52,16.00
2023,05,16,01,53,16.00
2023,05,16,01,54,15.90
2023,05,16,01,55,15.90
2023,05,16,01,56,15.90
2023,05,16,01,57,15.90
2023,05,16,01,58,15.90
2023,05,16,01,59,15.90
2023,05,16,02,00,15.90
2023,05,16,02,01,15.90
2023,05,16,02,02,15.90
2023,05,16,02,03,15.90
2023,05,16,02,04,15.90
2023,05,16,02,05,15.90
2023,05,16,02,06,16.00
2023,05,16,02,07,16.00
2023,05,16,02,08,16.00
2023,05,16,02,09,16.00
2023,05,16,02,10,16.10
2023,05,16,02,11,16.10
2023,05,16,02,12,16.10
2023,05,16,02,13,16.10
2023,05,16,02,14,16.10
2023,05,16,02,15,16.10
2023,05,16,02,16,16.20
2023,05,16,02,17,16.20
2023,05,16,02,18,16.20
2023,05,16,02,19,16.20
2023,05,16,02,20,16.20
2023,05,16,02,21,16.20
2023,05,16,02,22,16.20
2023,05,16,02,23,16.20
2023,05,16,02,24,16.20
2023,05,16,02,25,16.20
2023,05,16,02,26,16.20
2023,05,16,02,27,16.20
2023,05,16,02,28,16.20
2023,05,16,02,29,16.20
2023,05,16,02,30,16.20
2023,05,16,02,31,16.20
2023,05,16,02,32,16.20
2023,05,16,02,33,16.20
2023,05,16,02,34,16.20
2023,05,16,02,35,16.20
2023,05,16,02,36,16.20
2023,05,16,02,37,16.20
2023,05,16,02,38,16.20
2023,05,16,02,39,16.20
2023,05,16,02,40,16.10
2023,05,16,02,41,16.10
2023,05,16,02,42,16.10
2023,05,16,02,43,16.10
2023,05,16,02,44,16.10
2023,05,16,02,45,16.10
2023,05,16,02,46,16.00
2023,05,16,02,47,16.00
2023,05,16,02,48,16.00
2023,05,16,02,49,15.90
2023,05,16,02,50,15.90
2023,05,16,02,51,15.90
2023,05,16,02,52,15.90
2023,05,16,02,53,15.90
2023,05,16,02,54,16.00
2023,05,16,02,55,16.00
2023,05,16,02,56,16.00
2023,05,16,02,57,16.00
2023,05,16,02,58,16.00
2023,05,16,02,59,16.00
2023,05,16,03,00,16.00
2023,05,16,03,01,16.00
2023,05,16,03,02,16.00
2023,05,16,03,03,15.90
2023,05,16,03,04,15.90
2023,05,16,03,05,15.90
2023,05,16,03,06,15.90
2023,05,16,03,07,15.80
2023,05,16,03,08,15.80
2023,05,16,03,09,15.80
2023,05,16,03,10,15.80
2023,05,16,03,11,15.80
2023,05,16,03,12,15.80
2023,05,16,03,13,15.80
2023,05,16,03,14,15.80
2023,05,16,03,15,15.80
2023,05,16,03,16,15.80
2023,05,16,03,17,15.80
2023,05,16,03,18,15.80
2023,05,16,03,19,15.80
2023,05,16,03,20,15.80
2023,05,16,03,21,15.80
2023,05,16,03,22,15.80
2023,05,16,03,23,15.80
2023,05,16,03,24,15.80
2023,05,16,03,25,15.80
2023,05,16,03,26,15.70
2023,05,16,03,27,15.70
2023,05,16,03,28,15.70
2023,05,16,03,29,15.70
2023,05,16,03,30,15.70
2023,05,16,03,31,15.70
2023,05,16,03,32,15.70
2023,05,16,03,33,15.70
2023,05,16,03,34,15.70
2023,05,16,03,35,15.70
2023,05,16,03,36,15.70
2023,05,16,03,37,15.70
2023,05,16,03,38,15.70
2023,05,16,03,39,15.70
2023,05,16,03,40,15.60
2023,05,16,03,41,15.60
2023,05,16,03,42,15.60
2023,05,16,03,43,15.60
2023,05,16,03,44,15.60
2023,05,16,03,45,15.60
2023,05,16,03,46,15.60
2023,05,16,03,47,15.60
2023,05,16,03,48,15.50
2023,05,16,03,49,15.50
2023,05,16,03,50,15.50
2023,05,16,03,51,15.40
2023,05,16,03,52,15.40
2023,05,16,03,53,15.40
2023,05,16,03,54,15.40
2023,05,16,03,55,15.30
2023,05,16,03,56,15.30
2023,05,16,03,57,15.30
2023,05,16,03,58,15.30
2023,05,16,03,59,15.30
2023,05,16,04,00,15.30
2023,05,16,04,01,15.30
2023,05,16,04,02,15.30
2023,05,16,04,03,15.30
2023,05,16,04,04,15.30
2023,05,16,04,05,15.20
2023,05,16,04,06,15.20
2023,05,16,04,07,15.20
2023,05,16,04,08,15.20
2023,05,16,04,09,15.20
2023,05,16,04,10,15.20
2023,05,16,04,11,15.20
2023,05,16,04,12,15.20
2023,05,16,04,13,15.20
2023,05,16,04,14,15.20
2023,05,16,04,15,15.20
2023,05,16,04,16,15.20
2023,05,16,04,17,15.10
2023,05,16,04,18,15.10
2023,05,16,04,19,15.10
2023,05,16,04,20,15.10
2023,05,16,04,21,15.10
2023,05,16,04,22,15.10
2023,05,16,04,23,15.10
2023,05,16,04,24,15.10
2023,05,16,04,25,15.10
2023,05,16,04,26,15.10
2023,05,16,04,27,15.00
2023,05,16,04,28,15.00
2023,05,16,04,29,15.00
2023,05,16,04,30,15.00
2023,05,16,04,31,14.90
2023,05,16,04,32,14.90
2023,05,16,04,33,14.90
2023,05,16,04,34,14.90
2023,05,16,04,35,14.90
2023,05,16,04,36,14.90
2023,05,16,04,37,14.90
2023,05,16,04,38,14.90
2023,05,16,04,39,14.90
2023,05,16,04,40,14.90
2023,05,16,04,41,14.90
2023,05,16,04,42,14.90
2023,05,16,04,43,14.80
2023,05,16,04,44,14.80
2023,05,16,04,45,14.80
2023,05,16,04,46,14.80
2023,05,16,04,47,14.80
2023,05,16,04,48,14.70
2023,05,16,04,49,14.70
2023,05,16,04,50,14.70
2023,05,16,04,51,14.70
2023,05,16,04,52,14.60
2023,05,16,04,53,14.60
2023,05,16,04,54,14.60
2023,05,16,04,55,14.50
2023,05,16,04,56,14.50
2023,05,16,04,57,14.40
2023,05,16,04,58,14.40
2023,05,16,04,59,14.30
2023,05,16,05,00,14.10
2023,05,16,05,01,14.00
2023,05,16,05,02,13.90
2023,05,16,05,03,13.80
2023,05,16,05,04,13.70
2023,05,16,05,05,13.70
2023,05,16,05,06,13.60
2023,05,16,05,07,13.50
2023,05,16,05,08,13.50
2023,05,16,05,09,13.40
2023,05,16,05,10,13.40
2023,05,16,05,11,13.30
2023,05,16,05,12,13.30
2023,05,16,05,13,13.30
2023,05,16,05,14,13.20
2023,05,16,05,15,13.20
2023,05,16,05,16,13.20
2023,05,16,05,17,13.10
2023,05,16,05,18,13.10
2023,05,16,05,19,13.10
2023,05,16,05,20,13.10
2023,05,16,05,21,13.00
2023,05,16,05,22,13.00
2023,05,16,05,23,13.00
2023,05,16,05,24,12.90
2023,05,16,05,25,12.90
2023,05,16,05,26,12.90
2023,05,16,05,27,12.90
2023,05,16,05,28,12.90
2023,05,16,05,29,12.90
2023,05,16,05,30,12.90
2023,05,16,05,31,12.90
2023,05,16,05,32,12.90
2023,05,16,05,33,13.00
2023,05,16,05,34,13.00
2023,05,16,05,35,12.90
2023,05,16,05,36,12.90
2023,05,16,05,37,12.90
2023,05,16,05,38,12.90
2023,05,16,05,39,12.80
2023,05,16,05,40,12.80
2023,05,16,05,41,12.80
2023,05,16,05,42,12.80
2023,05,16,05,43,12.70
2023,05,16,05,44,12.70
2023,05,16,05,45,12.70
2023,05,16,05,46,12.70
2023,05,16,05,47,12.60
2023,05,16,05,48,12.60
2023,05,16,05,49,12.60
2023,05,16,05,50,12.60
2023,05,16,05,51,12.60
2023,05,16,05,52,12.60
2023,05,16,05,53,12.60
2023,05,16,05,54,12.60
2023,05,16,05,55,12.50
2023,05,16,05,56,12.50
2023,05,16,05,57,12.50
2023,05,16,05,58,12.50
2023,05,16,05,59,12.40
2023,05,16,06,00,12.40
2023,05,16,06,01,12.40
2023,05,16,06,02,12.50
2023,05,16,06,03,12.50
2023,05,16,06,04,12.60
2023,05,16,06,05,12.60
2023,05,16,06,06,12.60
2023,05,16,06,07,12.70
2023,05,16,06,08,12.70
2023,05,16,06,09,12.70
2023,05,16,06,10,12.70
2023,05,16,06,11,12.80
2023,05,16,06,12,12.80
2023,05,16,06,13,12.80
2023,05,16,06,14,12.80
2023,05,16,06,15,12.80
2023,05,16,06,16,12.90
2023,05,16,06,17,12.90
2023,05,16,06,18,13.00
2023,05,16,06,19,13.00
2023,05,16,06,20,13.10
2023,05,16,06,21,13.10
2023,05,16,06,22,13.20
2023,05,16,06,23,13.20
2023,05,16,06,24,13.30
2023,05,16,06,25,13.30
2023,05,16,06,26,13.40
2023,05,16,06,27,13.40
2023,05,16,06,28,13.50
2023,05,16,06,29,13.50
2023,05,16,06,30,13.60
2023,05,16,06,31,13.60
2023,05,16,06,32,13.60
2023,05,16,06,33,13.70
2023,05,16,06,34,13.70
2023,05,16,06,35,13.70
2023,05,16,06,36,13.70
2023,05,16,06,37,13.80
2023,05,16,06,38,13.80
2023,05,16,06,39,13.90
2023,05,16,06,40,13.90
2023,05,16,06,41,14.00
2023,05,16,06,42,14.00
2023,05,16,06,43,14.10
2023,05,16,06,44,14.10
2023,05,16,06,45,14.10
2023,05,16,06,46,14.20
2023,05,16,06,47,14.20
2023,05,16,06,48,14.20
2023,05,16,06,49,14.20
2023,05,16,06,50,14.20
2023,05,16,06,51,14.30
2023,05,16,06,52,14.30
2023,05,16,06,53,14.30
2023,05,16,06,54,14.30
2023,05,16,06,55,14.30
2023,05,16,06,56,14.30
2023,05,16,06,57,14.30
2023,05,16,06,58,14.30
2023,05,16,06,59,14.30
2023,05,16,07,00,14.40
2023,05,16,07,01,14.40
2023,05,16,07,02,14.40
2023,05,16,07,03,14.40
2023,05,16,07,04,14.40
2023,05,16,07,05,14.50
2023,05,16,07,06,14.50
2023,05,16,07,07,14.60
2023,05,16,07,08,14.60
2023,05,16,07,09,14.60
2023,05,16,07,10,14.70
2023,05,16,07,11,14.70
2023,05,16,07,12,14.70
2023,05,16,07,13,14.70
2023,05,16,07,14,14.70
2023,05,16,07,15,14.80
2023,05,16,07,16,14.80
2023,05,16,07,17,14.80
2023,05,16,07,18,14.80
2023,05,16,07,19,14.90
2023,05,16,07,20,14.90
2023,05,16,07,21,15.00
2023,05,16,07,22,15.00
2023,05,16,07,23,15.10
2023,05,16,07,24,15.10
2023,05,16,07,25,15.10
2023,05,16,07,26,15.10
2023,05,16,07,27,15.20
2023,05,16,07,28,15.20
2023,05,16,07,29,15.20
2023,05,16,07,30,15.20
2023,05,16,07,31,15.30
2023,05,16,07,32,15.30
2023,05,16,07,33,15.30
2023,05,16,07,34,15.40
2023,05,16,07,35,15.40
2023,05,16,07,36,15.40
2023,05,16,07,37,15.40
2023,05,16,07,38,15.50
2023,05,16,07,39,15.50
2023,05,16,07,40,15.60
2023,05,16,07,41,15.60
2023,05,16,07,42,15.70
2023,05,16,07,43,15.70
2023,05,16,07,44,15.70
2023,05,16,07,45,15.80
2023,05,16,07,46,15.80
2023,05,16,07,47,15.80
2023,05,16,07,48,15.80
2023,05,16,07,49,15.80
2023,05,16,07,50,15.80
2023,05,16,07,51,15.80
2023,05,16,07,52,15.90
2023,05,16,07,53,15.90
2023,05,16,07,54,16.00
2023,05,16,07,55,16.10
2023,05,16,07,56,16.10
2023,05,16,07,57,16.10
2023,05,16,07,58,16.10
2023,05,16,07,59,16.20
2023,05,16,08,00,16.20
2023,05,16,08,01,16.20
2023,05,16,08,02,16.20
2023,05,16,08,03,16.20
2023,05,16,08,04,16.20
2023,05,16,08,05,16.30
2023,05,16,08,06,16.30
2023,05,16,08,07,16.30
2023,05,16,08,08,16.40
2023,05,16,08,09,16.40
2023,05,16,08,10,16.50
2023,05,16,08,11,16.60
2023,05,16,08,12,16.60
2023,05,16,08,13,16.70
2023,05,16,08,14,16.70
2023,05,16,08,15,16.80
2023,05,16,08,16,16.90
2023,05,16,08,17,16.90
2023,05,16,08,18,16.90
2023,05,16,08,19,16.90
2023,05,16,08,20,17.00
2023,05,16,08,21,17.00
2023,05,16,08,22,17.00
2023,05,16,08,23,17.10
2023,05,16,08,24,17.10
2023,05,16,08,25,17.10
2023,05,16,08,26,17.20
2023,05,16,08,27,17.20
2023,05,16,08,28,17.20
2023,05,16,08,29,17.20
2023,05,16,08,30,17.20
2023,05,16,08,31,17.20
2023,05,16,08,32,17.30
2023,05,16,08,33,17.30
2023,05,16,08,34,17.30
2023,05,16,08,35,17.40
2023,05,16,08,36,17.40
2023,05,16,08,37,17.40
2023,05,16,08,38,17.50
2023,05,16,08,39,17.50
2023,05,16,08,40,17.50
2023,05,16,08,41,17.60
2023,05,16,08,42,17.60
2023,05,16,08,43,17.60
2023,05,16,08,44,17.60
2023,05,16,08,45,17.60
2023,05,16,08,46,17.70
2023,05,16,08,47,17.70
2023,05,16,08,48,17.70
2023,05,16,08,49,17.70
2023,05,16,08,50,17.70
2023,05,16,08,51,17.70
2023,05,16,08,52,17.70
2023,05,16,08,53,17.80
2023,05,16,08,54,17.80
2023,05,16,08,55,17.80
2023,05,16,08,56,17.80
2023,05,16,08,57,17.70
2023,05,16,08,58,17.70
2023,05,16,08,59,17.70
2023,05,16,09,00,17.70
2023,05,16,09,01,17.70
2023,05,16,09,02,17.70
2023,05,16,09,03,17.70
2023,05,16,09,04,17.70
2023,05,16,09,05,17.80
2023,05,16,09,06,17.70
2023,05,16,09,07,17.80
2023,05,16,09,08,17.80
2023,05,16,09,09,17.80
2023,05,16,09,10,17.80
2023,05,16,09,11,17.90
2023,05,16,09,12,17.90
2023,05,16,09,13,18.00
2023,05,16,09,14,18.10
2023,05,16,09,15,18.20
2023,05,16,09,16,18.20
2023,05,16,09,17,18.30
2023,05,16,09,18,18.20
2023,05,16,09,19,18.20
2023,05,16,09,20,18.20
2023,05,16,09,21,18.30
2023,05,16,09,22,18.30
2023,05,16,09,23,18.30
2023,05,16,09,24,18.30
2023,05,16,09,25,18.30
2023,05,16,09,26,18.30
2023,05,16,09,27,18.30
2023,05,16,09,28,18.30
2023,05,16,09,29,18.30
2023,05,16,09,30,18.40
2023,05,16,09,31,18.40
2023,05,16,09,32,18.50
2023,05,16,09,33,18.50
2023,05,16,09,34,18.50
2023,05,16,09,35,18.60
2023,05,16,09,36,18.60
2023,05,16,09,37,18.60
2023,05,16,09,38,18.60
2023,05,16,09,39,18.70
2023,05,16,09,40,18.70
2023,05,16,09,41,18.70
2023,05,16,09,42,18.80
2023,05,16,09,43,18.80
2023,05,16,09,44,18.80
2023,05,16,09,45,18.80
2023,05,16,09,46,18.80
2023,05,16,09,47,18.70
2023,05,16,09,48,18.70
2023,05,16,09,49,18.70
2023,05,16,09,50,18.60
2023,05,16,09,51,18.60
2023,05,16,09,52,18.60
2023,05,16,09,53,18.50
2023,05,16,09,54,18.40
2023,05,16,09,55,18.40
2023,05,16,09,56,18.40
2023,05,16,09,57,18.40
2023,05,16,09,58,18.50
2023,05,16,09,59,18.50
2023,05,16,10,00,18.50
2023,05,16,10,01,18.50
2023,05,16,10,02,18.50
2023,05,16,10,03,18.50
2023,05,16,10,04,18.60
2023,05,16,10,05,18.60
2023,05,16,10,06,18.50
2023,05,16,10,07,18.50
2023,05,16,10,08,18.60
2023,05,16,10,09,18.60
2023,05,16,10,10,18.60
2023,05,16,10,11,18.60
2023,05,16,10,12,18.70
2023,05,16,10,13,18.70
2023,05,16,10,14,18.70
2023,05,16,10,15,18.70
2023,05,16,10,16,18.60
2023,05,16,10,17,18.60
2023,05,16,10,18,18.60
2023,05,16,10,19,18.50
2023,05,16,10,20,18.50
2023,05,16,10,21,18.40
2023,05,16,10,22,18.40
2023,05,16,10,23,18.40
2023,05,16,10,24,18.40
2023,05,16,10,25,18.40
2023,05,16,10,26,18.40
2023,05,16,10,27,18.50
2023,05,16,10,28,18.50
2023,05,16,10,29,18.60
2023,05,16,10,30,18.70
2023,05,16,10,31,18.80
2023,05,16,10,32,18.80
2023,05,16,10,33,18.80
2023,05,16,10,34,18.90
2023,05,16,10,35,18.90
2023,05,16,10,36,19.00
2023,05,16,10,37,19.00
2023,05,16,10,38,19.00
2023,05,16,10,39,19.00
2023,05,16,10,40,19.00
2023,05,16,10,41,19.00
2023,05,16,10,42,19.00
2023,05,16,10,43,19.10
2023,05,16,10,44,19.00
2023,05,16,10,45,19.00
2023,05,16,10,46,19.00
2023,05,16,10,47,19.10
2023,05,16,10,48,19.10
2023,05,16,10,49,19.10
2023,05,16,10,50,19.20
2023,05,16,10,51,19.30
2023,05,16,10,52,19.30
2023,05,16,10,53,19.30
2023,05,16,10,54,19.40
2023,05,16,10,55,19.40
2023,05,16,10,56,19.30
2023,05,16,10,57,19.20
2023,05,16,10,58,19.00
2023,05,16,10,59,18.90
2023,05,16,11,00,18.80
2023,05,16,11,01,18.70
2023,05,16,11,02,18.60
2023,05,16,11,03,18.60
2023,05,16,11,04,18.60
2023,05,16,11,05,18.70
2023,05,16,11,06,18.70
2023,05,16,11,07,18.80
2023,05,16,11,08,18.80
2023,05,16,11,09,18.90
2023,05,16,11,10,18.90
2023,05,16,11,11,18.90
2023,05,16,11,12,18.90
2023,05,16,11,13,19.00
2023,05,16,11,14,19.00
2023,05,16,11,15,18.90
2023,05,16,11,16,18.90
2023,05,16,11,17,18.80
2023,05,16,11,18,18.80
2023,05,16,11,19,18.80
2023,05,16,11,20,18.80
2023,05,16,11,21,18.80
2023,05,16,11,22,18.80
2023,05,16,11,23,18.80
2023,05,16,11,24,18.90
2023,05,16,11,25,18.90
2023,05,16,11,26,19.00
2023,05,16,11,27,19.00
2023,05,16,11,28,19.00
2023,05,16,11,29,19.00
2023,05,16,11,30,19.00
2023,05,16,11,31,19.00
2023,05,16,11,32,19.10
2023,05,16,11,33,19.10
2023,05,16,11,34,19.20
2023,05,16,11,35,19.20
2023,05,16,11,36,19.30
2023,05,16,11,37,19.30
2023,05,16,11,38,19.30
2023,05,16,11,39,19.30
2023,05,16,11,40,19.30
2023,05,16,11,41,19.30
2023,05,16,11,42,19.30
2023,05,16,11,43,19.30
2023,05,16,11,44,19.30
2023,05,16,11,45,19.30
2023,05,16,11,46,19.30
2023,05,16,11,47,19.30
2023,05,16,11,48,19.30
2023,05,16,11,49,19.40
2023,05,16,11,50,19.40
2023,05,16,11,51,19.50
2023,05,16,11,52,19.50
2023,05,16,11,53,19.50
2023,05,16,11,54,19.50
2023,05,16,11,55,19.60
2023,05,16,11,56,19.60
2023,05,16,11,57,19.60
2023,05,16,11,58,19.60
2023,05,16,11,59,19.50
2023,05,16,12,00,19.50
2023,05,16,12,01,19.40
2023,05,16,12,02,19.30
2023,05,16,12,03,19.30
2023,05,16,12,04,19.30
2023,05,16,12,05,19.40
2023,05,16,12,06,19.40
2023,05,16,12,07,19.50
2023,05,16,12,08,19.50
2023,05,16,12,09,19.60
2023,05,16,12,10,19.70
2023,05,16,12,11,19.70
2023,05,16,12,12,19.70
2023,05,16,12,13,19.70
2023,05,16,12,14,19.70
2023,05,16,12,15,19.80
2023,05,16,12,16,19.80
2023,05,16,12,17,19.80
2023,05,16,12,18,19.70
2023,05,16,12,19,19.70
2023,05,16,12,20,19.70
2023,05,16,12,21,19.70
2023,05,16,12,22,19.70
2023,05,16,12,23,19.80
2023,05,16,12,24,19.70
2023,05,16,12,25,19.70
2023,05,16,12,26,19.70
2023,05,16,12,27,19.70
2023,05,16,12,28,19.70
2023,05,16,12,29,19.80
2023,05,16,12,30,19.90
2023,05,16,12,31,19.90
2023,05,16,12,32,19.90
2023,05,16,12,33,19.90
2023,05,16,12,34,19.90
2023,05,16,12,35,20.00
2023,05,16,12,36,20.00
2023,05,16,12,37,20.00
2023,05,16,12,38,20.00
2023,05,16,12,39,20.00
2023,05,16,12,40,19.90
2023,05,16,12,41,19.80
2023,05,16,12,42,19.70
2023,05,16,12,43,19.70
2023,05,16,12,44,19.70
2023,05,16,12,45,19.60
2023,05,16,12,46,19.70
2023,05,16,12,47,19.80
2023,05,16,12,48,19.90
2023,05,16,12,49,20.00
2023,05,16,12,50,20.00
2023,05,16,12,51,19.90
2023,05,16,12,52,19.90
2023,05,16,12,53,19.90
2023,05,16,12,54,19.90
2023,05,16,12,55,19.90
2023,05,16,12,56,19.90
2023,05,16,12,57,19.90
2023,05,16,12,58,19.90
2023,05,16,12,59,20.00
2023,05,16,13,00,20.10
2023,05,16,13,01,20.10
2023,05,16,13,02,20.10
2023,05,16,13,03,20.10
2023,05,16,13,04,20.20
2023,05,16,13,05,20.20
2023,05,16,13,06,20.10
2023,05,16,13,07,20.10
2023,05,16,13,08,20.00
2023,05,16,13,09,20.00
2023,05,16,13,10,19.90
2023,05,16,13,11,19.80
2023,05,16,13,12,19.80
2023,05,16,13,13,19.80
2023,05,16,13,14,19.80
2023,05,16,13,15,19.80
2023,05,16,13,16,19.80
2023,05,16,13,17,19.80
2023,05,16,13,18,19.90
2023,05,16,13,19,20.00
2023,05,16,13,20,20.00
2023,05,16,13,21,20.10
2023,05,16,13,22,20.00
2023,05,16,13,23,20.00
2023,05,16,13,24,20.00
2023,05,16,13,25,20.10
2023,05,16,13,26,20.10
2023,05,16,13,27,20.10
2023,05,16,13,28,20.20
2023,05,16,13,29,20.10
2023,05,16,13,30,20.10
2023,05,16,13,31,20.10
2023,05,16,13,32,20.10
2023,05,16,13,33,20.10
2023,05,16,13,34,20.10
2023,05,16,13,35,20.20
2023,05,16,13,36,20.20
2023,05,16,13,37,20.20
2023,05,16,13,38,20.20
2023,05,16,13,39,20.20
2023,05,16,13,40,20.20
2023,05,16,13,41,20.20
2023,05,16,13,42,20.30
2023,05,16,13,43,20.40
2023,05,16,13,44,20.40
2023,05,16,13,45,20.40
2023,05,16,13,46,20.40
2023,05,16,13,47,20.50
2023,05,16,13,48,20.50
2023,05,16,13,49,20.60
2023,05,16,13,50,20.60
2023,05,16,13,51,20.60
2023,05,16,13,52,20.60
2023,05,16,13,53,20.60
2023,05,16,13,54,20.60
2023,05,16,13,55,20.70
2023,05,16,13,56,20.70
2023,05,16,13,57,20.80
2023,05,16,13,58,20.70
2023,05,16,13,59,20.60
2023,05,16,14,00,20.50
2023,05,16,14,01,20.50
2023,05,16,14,02,20.40
2023,05,16,14,03,20.40
2023,05,16,14,04,20.40
2023,05,16,14,05,20.40
2023,05,16,14,06,20.40
2023,05,16,14,07,20.40
2023,05,16,14,08,20.50
2023,05,16,14,09,20.60
2023,05,16,14,10,20.70
2023,05,16,14,11,20.90
2023,05,16,14,12,21.10
2023,05,16,14,13,21.20
2023,05,16,14,14,21.30
2023,05,16,14,15,21.40
2023,05,16,14,16,21.50
2023,05,16,14,17,21.50
2023,05,16,14,18,21.40
2023,05,16,14,19,21.30
2023,05,16,14,20,21.30
2023,05,16,14,21,21.30
2023,05,16,14,22,21.30
2023,05,16,14,23,21.30
2023,05,16,14,24,21.40
2023,05,16,14,25,21.40
2023,05,16,14,26,21.40
2023,05,16,14,27,21.40
2023,05,16,14,28,21.40
2023,05,16,14,29,21.50
2023,05,16,14,30,21.50
2023,05,16,14,31,21.50
2023,05,16,14,32,21.40
2023,05,16,14,33,21.40
2023,05,16,14,34,21.40
2023,05,16,14,35,21.40
2023,05,16,14,36,21.40
2023,05,16,14,37,21.30
2023,05,16,14,38,21.30
2023,05,16,14,39,21.30
2023,05,16,14,40,21.30
2023,05,16,14,41,21.40
2023,05,16,14,42,21.30
2023,05,16,14,43,21.30
2023,05,16,14,44,21.20
2023,05,16,14,45,21.20
2023,05,16,14,46,21.20
2023,05,16,14,47,21.30
2023,05,16,14,48,21.40
2023,05,16,14,49,21.50
2023,05,16,14,50,21.60
2023,05,16,14,51,21.70
2023,05,16,14,52,21.80
2023,05,16,14,53,21.80
2023,05,16,14,54,21.90
2023,05,16,14,55,21.90
2023,05,16,14,56,21.90
2023,05,16,14,57,21.80
2023,05,16,14,58,21.80
2023,05,16,14,59,21.80
2023,05,16,15,00,21.80
2023,05,16,15,01,21.80
2023,05,16,15,02,21.80
2023,05,16,15,03,21.80
2023,05,16,15,04,21.90
2023,05,16,15,05,21.90
2023,05,16,15,06,22.00
2023,05,16,15,07,22.10
2023,05,16,15,08,22.10
2023,05,16,15,09,22.10
2023,05,16,15,10,22.10
2023,05,16,15,11,22.00
2023,05,16,15,12,22.00
2023,05,16,15,13,22.00
2023,05,16,15,14,22.10
2023,05,16,15,15,22.10
2023,05,16,15,16,22.10
2023,05,16,15,17,22.00
2023,05,16,15,18,22.00
2023,05,16,15,19,22.00
2023,05,16,15,20,22.10
2023,05,16,15,21,22.20
2023,05,16,15,22,22.20
2023,05,16,15,23,22.20
2023,05,16,15,24,22.20
2023,05,16,15,25,22.30
2023,05,16,15,26,22.30
2023,05,16,15,27,22.40
2023,05,16,15,28,22.50
2023,05,16,15,29,22.50
2023,05,16,15,30,22.50
2023,05,16,15,31,22.50
2023,05,16,15,32,22.50
2023,05,16,15,33,22.50
2023,05,16,15,34,22.60
2023,05,16,15,35,22.60
2023,05,16,15,36,22.70
2023,05,16,15,37,22.70
2023,05,16,15,38,22.70
2023,05,16,15,39,22.70
2023,05,16,15,40,22.60
2023,05,16,15,41,22.60
2023,05,16,15,42,22.60
2023,05,16,15,43,22.70
2023,05,16,15,44,22.70
2023,05,16,15,45,22.70
2023,05,16,15,46,22.70
2023,05,16,15,47,22.80
2023,05,16,15,48,22.90
2023,05,16,15,49,22.90
2023,05,16,15,50,22.90
2023,05,16,15,51,22.90
2023,05,16,15,52,22.90
2023,05,16,15,53,22.90
2023,05,16,15,54,22.90
2023,05,16,15,55,22.90
2023,05,16,15,56,22.90
2023,05,16,15,57,22.90
2023,05,16,15,58,22.90
2023,05,16,15,59,23.00
2023,05,16,16,00,23.00
2023,05,16,16,01,22.90
2023,05,16,16,02,22.90
2023,05,16,16,03,22.90
2023,05,16,16,04,22.90
2023,05,16,16,05,23.00
2023,05,16,16,06,23.10
2023,05,16,16,07,23.10
2023,05,16,16,08,23.10
2023,05,16,16,09,23.10
2023,05,16,16,10,23.10
2023,05,16,16,11,23.00
2023,05,16,16,12,23.00
2023,05,16,16,13,23.00
2023,05,16,16,14,23.10
2023,05,16,16,15,23.10
2023,05,16,16,16,23.10
2023,05,16,16,17,23.00
2023,05,16,16,18,23.00
2023,05,16,16,19,22.90
2023,05,16,16,20,22.90
2023,05,16,16,21,22.90
2023,05,16,16,22,22.90
2023,05,16,16,23,23.00
2023,05,16,16,24,23.10
2023,05,16,16,25,23.20
2023,05,16,16,26,23.20
2023,05,16,16,27,23.30
2023,05,16,16,28,23.30
2023,05,16,16,29,23.40
2023,05,16,16,30,23.40
2023,05,16,16,31,23.40
2023,05,16,16,32,23.40
2023,05,16,16,33,23.40
2023,05,16,16,34,23.40
2023,05,16,16,35,23.30
2023,05,16,16,36,23.30
2023,05,16,16,37,23.40
2023,05,16,16,38,23.40
2023,05,16,16,39,23.40
2023,05,16,16,40,23.40
2023,05,16,16,41,23.50
2023,05,16,16,42,23.50
2023,05,16,16,43,23.40
2023,05,16,16,44,23.40
2023,05,16,16,45,23.30
2023,05,16,16,46,23.20
2023,05,16,16,47,23.20
2023,05,16,16,48,23.10
2023,05,16,16,49,23.20
2023,05,16,16,50,23.20
2023,05,16,16,51,23.10
2023,05,16,16,52,23.10
2023,05,16,16,53,23.10
2023,05,16,16,54,23.10
2023,05,16,16,55,23.10
2023,05,16,16,56,23.00
2023,05,16,16,57,23.00
2023,05,16,16,58,22.90
2023,05,16,16,59,23.00
2023,05,16,17,00,23.00
2023,05,16,17,01,23.00
2023,05,16,17,02,23.10
2023,05,16,17,03,23.10
2023,05,16,17,04,23.00
2023,05,16,17,05,23.00
2023,05,16,17,06,23.00
2023,05,16,17,07,23.00
2023,05,16,17,08,23.00
2023,05,16,17,09,22.90
2023,05,16,17,10,22.90
2023,05,16,17,11,22.90
2023,05,16,17,12,22.90
2023,05,16,17,13,22.90
2023,05,16,17,14,22.80
2023,05,16,17,15,22.80
2023,05,16,17,16,22.80
2023,05,16,17,17,22.80
2023,05,16,17,18,22.80
2023,05,16,17,19,22.80